[TLELIST] Archives

 

Current TLEs <22 DEC 2005>

December 22nd 2005 PST

HST 1 20580U 90037B 05355.70986092 .00000390 00000-0 17644-4 0 4974 2 20580 28.4662 126.7369 0003901 106.4872 253.6145 14.99924103658423 ISS 1 25544U 98067A 05356.33666667 .00013246 00000-0 98044-4 0 9953 2 25544 51.6452 16.5849 0010652 67.7723 122.0829 15.73255560405297 CHANDRA 1 25867U 99040B 05355.58333333 .00000000 00000-0 00000+0 0 8694 2 25867 58.5513 100.1172 5674585 294.9324 357.7335 0.37791432 1215 FLOATING POTENTIAL PROBE 1 28 ...Continue Reading

Current TLEs <12 DEC 2005>

December 12th 2005 PST

HST 1 20580U 90037B 05345.92856500 .00000509 00000-0 27032-4 0 4904 2 20580 28.4656 190.4886 0003436 358.2688 1.7872 14.99917554656950 ISS 1 25544U 98067A 05346.80167824 .00023436 00000-0 17161-3 0 9339 2 25544 51.6447 65.4803 0010119 33.0014 121.2613 15.73011378403793 CHANDRA 1 25867U 99040B 05345.00000000 .00000000 00000-0 00000+0 0 8658 2 25867 58.4606 100.2225 5688523 295.2782 356.8773 0.37803698 1210 FLOATING POTENTIAL PROBE 1 28 ...Continue Reading

Current TLEs <09 DEC 2005>

December 10th 2005 PST

HST 1 20580U 90037B 05343.06736004 .00000664 00000-0 39229-4 0 4883 2 20580 28.4677 209.1467 0003476 323.7572 36.2776 14.99916523656523 ISS 1 25544U 98067A 05344.11819352 .00013554 00000-0 10186-3 0 9162 2 25544 51.6442 79.2345 0009577 24.3979 44.1173 15.72882125403374 CHANDRA 1 25867U 99040B 05342.37500000 .00000000 00000-0 00000+0 0 8649 2 25867 58.4247 100.3124 5686707 295.2638 359.5871 0.37799315 1211 FLOATING POTENTIAL PROBE 1 28 ...Continue Reading

Current TLEs <02 DEC 2005>

December 3rd 2005 PST

HST 1 20580U 90037B 05336.21376240 .00000607 00000-0 34722-4 0 4839 2 20580 28.4684 253.8112 0003708 249.4308 110.5880 14.99909050655497 ISS 1 25544U 98067A 05337.17921296 .00013333 00000-0 10123-3 0 8683 2 25544 51.6426 114.7979 0008993 357.6464 355.7960 15.72662367402273 CHANDRA 1 25867U 99040B 05337.08333333 .00000000 00000-0 00000+0 0 8622 2 25867 58.3976 100.3499 5679175 295.4691 359.1325 0.37784640 1211 FLOATING POTENTIAL PROBE 1 28 ...Continue Reading

Current TLEs <28 NOV 2005>

November 28th 2005 PST

HST 1 20580U 90037B 05331.22326382 .00000692 00000-0 41436-4 0 4796 2 20580 28.4685 286.3347 0004104 198.4203 161.6209 14.99904629654743 ISS 1 25544U 98067A 05332.29819150 .00012103 00000-0 92806-4 0 8409 2 25544 51.6443 139.8089 0008694 338.3863 83.3284 15.72541735401513 CHANDRA 1 25867U 99040B 05331.79166667 .00000000 00000-0 00000+0 0 8606 2 25867 58.3067 100.4295 5688234 295.6243 358.6017 0.37802297 1219 FLOATING POTENTIAL PROBE 1 28 ...Continue Reading

Current TLEs <23 NOV 2005>

November 23rd 2005 PST

HST 1 20580U 90037B 05326.29929411 .00000658 00000-0 38726-4 0 4766 2 20580 28.4689 318.4303 0004067 150.6508 209.4309 14.99899338654003 ISS 1 25544U 98067A 05327.33116898 .00010611 00000-0 82393-4 0 8094 2 25544 51.6432 165.2538 0008383 318.9567 45.9001 15.72412423400738 CHANDRA 1 25867U 99040B 05326.45833333 .00000000 00000-0 00000+0 0 8581 2 25867 58.2722 100.5529 5686220 295.7175 352.4867 0.37789707 1210 FLOATING POTENTIAL PROBE 1 28 ...Continue Reading

Current TLEs <15 NOV 2005>

November 15th 2005 PST

HST 1 20580U 90037B 05319.24600231 .00000613 00000-0 35233-4 0 4715 2 20580 28.4685 4.3936 0003728 76.2455 283.8548 14.99892118652940 ISS 1 25544U 98067A 05319.44930556 .00016043 00000-0 12313-3 0 7573 2 25544 51.6451 205.6249 0008242 284.3285 76.2474 15.72221451399494 CHANDRA 1 25867U 99040B 05318.58333333 .00000000 00000-0 00000+0 0 8558 2 25867 58.1753 100.6616 5702282 295.9070 0.3710 0.37807185 1211 FLOATING POTENTIAL PROBE 1 28 ...Continue Reading

Current TLEs <12 NOV 2005>

November 12th 2005 PST

HST 1 20580U 90037B 05316.51782883 .00000519 00000-0 27840-4 0 4693 2 20580 28.4686 22.1671 0003735 47.2422 312.8456 14.99889323652535 ISS 1 25544U 98067A 05316.99005253 .00012660 00000-0 98544-4 0 7423 2 25544 51.6445 218.2193 0008339 274.7953 197.4014 15.72132331399109 CHANDRA 1 25867U 99040B 05315.91666667 .00000000 00000-0 00000+0 0 8540 2 25867 58.1254 100.7713 5702613 295.8562 357.4240 0.37805667 1216 FLOATING POTENTIAL PROBE 1 28 ...Continue Reading

Update

November 9th 2005 PST

Good day all, This is just a quick note to let everyone know that I have had a few requests to include the Floating Potential Probe on the list for a short period of time, starting with the next report. Since it is due to re-enter in about 100 days, I may add it back on till it does decay. Please also note that in the past few months, I have been trying to keep the list going at three times a week, mainly on Monday's, Wednesday's and Friday's. But due to work schedule and work load I have had to deviate the schedul ...Continue Reading

Current TLEs <09 NOV 2005>

November 9th 2005 PST

HST 1 20580U 90037B 05312.65845312 .00000610 00000-0 35003-4 0 4660 2 20580 28.4680 47.3206 0003232 2.3339 357.7272 14.99885985651952 ISS 1 25544U 98067A 05313.37384259 .00021345 00000-0 14566-3 0 7182 2 25544 51.6438 236.7563 0001837 117.5084 23.7301 15.74783385398531 CHANDRA 1 25867U 99040B 05313.29166667 .00000000 00000-0 00000+0 0 8533 2 25867 58.1031 100.8508 5696320 295.8607 0.1045 0.37793079 1217 These 2-Line Elements (TLEs) ...Continue Reading
  • This mailing list is a public mailing list - anyone may join or leave, at any time.
  • This mailing list is announce-only.

International Space Station (ISS) / Hubble Space Telescope (HST) / Chandra X-Ray Observatory Orbital Data via EMAIL

Privacy Policy:

Private list